| time (UTC) | temp C | wind direction | speed KPH | gust KPH | rain 1hr cm | rain 24hr cm | rain mn cm | humidity % | barometer mb |
| 20260505170043 | 8 | 271 | 4.8 | 14.5 | 0.13 | 0.36 | 0.36 | 18 | 1004.5 |
| 20260505164554 | 8 | 269 | 6.4 | 19.3 | 0.13 | 0.33 | 0.33 | 20 | 1004.5 |
| 20260505163038 | 8 | 184 | 0.0 | 14.5 | 0.10 | 0.30 | 0.30 | 22 | 1004.7 |
| 20260505161506 | 8 | 239 | 3.2 | 11.3 | 0.08 | 0.25 | 0.25 | 23 | 1004.6 |
| 20260505153004 | 8 | 263 | 1.6 | 12.9 | 0.05 | 0.20 | 0.20 | 26 | 1004.6 |
| 20260505151600 | 8 | 203 | 4.8 | 14.5 | 0.03 | 0.18 | 0.18 | 24 | 1004.6 |
| 20260505124514 | 9 | 174 | 1.6 | 8.0 | 0.05 | 0.13 | 0.13 | 52 | 1005.1 |
| 20260505123011 | 9 | 131 | 3.2 | 6.4 | 0.08 | 0.13 | 0.13 | 63 | 1005.1 |
| 20260505121504 | 10 | 229 | 1.6 | 4.8 | 0.05 | 0.08 | 0.08 | 54 | 1005.2 |
| 20260505120002 | 10 | 202 | 0.0 | 4.8 | 0.05 | 0.05 | 0.05 | 64 | 1005.2 |
| 20260505114559 | 10 | 260 | 1.6 | 4.8 | 0.05 | 0.05 | 0.05 | 70 | 1005.2 |
| 20260505113114 | 10 | 260 | 1.6 | 4.8 | 0.05 | 0.05 | 0.05 | 72 | 1005.3 |
| 20260505111556 | 10 | 260 | 0.0 | 6.4 | 0.05 | 0.05 | 0.05 | 68 | 1005.3 |
| 20260505101549 | 10 | 277 | 4.8 | 14.5 | 0.00 | 0.00 | 0.00 | 84 | 1005.4 |
| 20260505100047 | 10 | 256 | 4.8 | 25.7 | 0.00 | 0.00 | 0.00 | 83 | 1005.3 |
| 20260505094544 | 10 | 263 | 4.8 | 12.9 | 0.00 | 0.00 | 0.00 | 80 | 1005.2 |
| 20260505093048 | 10 | 140 | 4.8 | 24.1 | 0.00 | 0.00 | 0.00 | 79 | 1005.4 |
| 20260505091537 | 11 | 223 | 6.4 | 19.3 | 0.00 | 0.00 | 0.00 | 77 | 1005.3 |
| 20260505090037 | 11 | 257 | 8.0 | 17.7 | 0.00 | 0.00 | 0.00 | 75 | 1005.2 |
| 20260505084544 | 12 | 261 | 6.4 | 16.1 | 0.00 | 0.00 | 0.00 | 74 | 1005.1 |
| 20260505083040 | 12 | 226 | 8.0 | 16.1 | 0.00 | 0.00 | 0.00 | 76 | 1004.9 |
| 20260505081507 | 12 | 205 | 3.2 | 9.7 | 0.00 | 0.00 | 0.00 | 77 | 1004.9 |
| 20260505080002 | 12 | 267 | 4.8 | 14.5 | 0.00 | 0.00 | 0.00 | 78 | 1004.9 |
| 20260505074531 | 12 | 244 | 3.2 | 16.1 | 0.00 | 0.00 | 0.00 | 79 | 1004.8 |
| 20260505073033 | 12 | 240 | 6.4 | 16.1 | 0.00 | 0.00 | 0.00 | 79 | 1004.7 |
| 20260505071525 | 12 | 201 | 0.0 | 4.8 | 0.00 | 0.00 | 0.00 | 80 | 1004.7 |
| 20260505070030 | 11 | 224 | 1.6 | 6.4 | 0.00 | 0.00 | 0.00 | 78 | 1004.6 |
| 20260505064520 | 11 | 229 | 0.0 | 4.8 | 0.00 | 0.00 | 0.00 | 80 | 1004.6 |
| 20260505063017 | 10 | 242 | 0.0 | 4.8 | 0.00 | 0.00 | 0.00 | 81 | 1004.5 |
| 20260505061520 | 10 | 275 | 0.0 | 3.2 | 0.00 | 0.00 | 0.00 | 81 | 1004.6 |
| 20260505060048 | 10 | 275 | 0.0 | 1.6 | 0.00 | 0.00 | 0.00 | 82 | 1004.6 |
| 20260505054546 | 9 | 275 | 0.0 | 0.0 | 0.00 | 0.00 | 0.00 | 84 | 1004.5 |
| 20260505053107 | 9 | 275 | 0.0 | 0.0 | 0.00 | 0.00 | 0.00 | 84 | 1004.6 |
| 20260505051542 | 8 | 275 | 0.0 | 1.6 | 0.00 | 0.00 | 0.00 | 84 | 1004.6 |
| 20260505041542 | 7 | 275 | 0.0 | 3.2 | 0.00 | 0.00 | 0.00 | 84 | 1004.5 |
| 20260505040037 | 7 | 275 | 0.0 | 1.6 | 0.00 | 0.00 | 0.00 | 83 | 1004.4 |
| 20260505034533 | 8 | 275 | 0.0 | 4.8 | 0.00 | 0.00 | 0.00 | 82 | 1004.5 |
| 20260505033028 | 8 | 299 | 3.2 | 8.0 | 0.00 | 0.00 | 0.00 | 81 | 1004.5 |
| 20260505031527 | 8 | 279 | 1.6 | 6.4 | 0.00 | 0.00 | 0.00 | 81 | 1004.6 |
| 20260505030026 | 8 | 326 | 0.0 | 8.0 | 0.00 | 0.00 | 0.00 | 82 | 1004.7 |
| 20260505024523 | 8 | 255 | 3.2 | 11.3 | 0.00 | 0.00 | 0.00 | 81 | 1004.9 |
| 20260505023019 | 8 | 313 | 1.6 | 8.0 | 0.00 | 0.00 | 0.00 | 81 | 1005.2 |
| 20260505021518 | 8 | 326 | 3.2 | 6.4 | 0.00 | 0.00 | 0.00 | 79 | 1005.3 |
| 20260505020017 | 8 | 308 | 3.2 | 6.4 | 0.00 | 0.00 | 0.00 | 79 | 1005.3 |
| 20260505014515 | 8 | 262 | 1.6 | 8.0 | 0.00 | 0.00 | 0.00 | 79 | 1005.5 |
| 20260505013011 | 8 | 276 | 1.6 | 8.0 | 0.00 | 0.00 | 0.00 | 79 | 1005.6 |
| 20260505011513 | 8 | 250 | 0.0 | 11.3 | 0.00 | 0.00 | 0.00 | 79 | 1005.7 |
| 20260505010014 | 8 | 281 | 1.6 | 16.1 | 0.00 | 0.00 | 0.00 | 79 | 1005.8 |
| 20260505004506 | 8 | 244 | 0.0 | 9.7 | 0.00 | 0.00 | 0.00 | 79 | 1006.0 |
| 20260505003001 | 8 | 265 | 1.6 | 12.9 | 0.00 | 0.00 | 0.00 | 80 | 1006.2 |
| 20260505001627 | 7 | 244 | 3.2 | 12.9 | 0.00 | 0.00 | 0.00 | 80 | 1006.5 |
| 20260505000109 | 7 | 271 | 3.2 | 11.3 | 0.00 | 0.00 | 0.00 | 80 | 1006.7 |
| 20260504234558 | 8 | 271 | 3.2 | 14.5 | 0.00 | 0.00 | 0.00 | 80 | 1006.7 |
| 20260504233103 | 8 | 269 | 3.2 | 11.3 | 0.00 | 0.00 | 0.00 | 79 | 1006.9 |
| 20260504231547 | 8 | 262 | 0.0 | 9.7 | 0.00 | 0.00 | 0.00 | 79 | 1006.9 |
| 20260504230045 | 8 | 261 | 0.0 | 4.8 | 0.00 | 0.00 | 0.00 | 77 | 1007.0 |
| 20260504224543 | 8 | 256 | 0.0 | 6.4 | 0.00 | 0.00 | 0.00 | 76 | 1007.2 |
| 20260504223038 | 9 | 251 | 1.6 | 4.8 | 0.00 | 0.00 | 0.00 | 75 | 1007.3 |
| 20260504221535 | 9 | 227 | 6.4 | 16.1 | 0.00 | 0.00 | 0.00 | 74 | 1007.3 |
| 20260504220034 | 9 | 249 | 1.6 | 9.7 | 0.00 | 0.00 | 0.00 | 73 | 1007.4 |
| 20260504214530 | 10 | 194 | 4.8 | 19.3 | 0.00 | 0.00 | 0.00 | 72 | 1007.4 |
| 20260504213032 | 10 | 272 | 1.6 | 17.7 | 0.00 | 0.00 | 0.00 | 72 | 1007.5 |
| 20260504211525 | 10 | 259 | 0.0 | 12.9 | 0.00 | 0.00 | 0.00 | 72 | 1007.7 |
| 20260504210024 | 10 | 268 | 3.2 | 16.1 | 0.00 | 0.00 | 0.00 | 72 | 1007.7 |
| 20260504204525 | 10 | 277 | 1.6 | 12.9 | 0.00 | 0.00 | 0.00 | 72 | 1007.7 |
| 20260504203057 | 10 | 290 | 1.6 | 9.7 | 0.00 | 0.00 | 0.00 | 72 | 1007.8 |
| 20260504201553 | 10 | 264 | 1.6 | 12.9 | 0.00 | 0.00 | 0.00 | 71 | 1007.8 |
| 20260504200052 | 10 | 300 | 4.8 | 17.7 | 0.00 | 0.00 | 0.00 | 72 | 1007.8 |
| 20260504194558 | 10 | 202 | 3.2 | 12.9 | 0.00 | 0.00 | 0.00 | 70 | 1007.8 |
| 20260504193048 | 10 | 271 | 3.2 | 9.7 | 0.00 | 0.00 | 0.00 | 67 | 1007.7 |
| 20260504191602 | 10 | 252 | 4.8 | 14.5 | 0.00 | 0.00 | 0.00 | 65 | 1007.7 |
| 20260504190014 | 10 | 265 | 3.2 | 14.5 | 0.00 | 0.00 | 0.00 | 64 | 1007.7 |
| 20260504184511 | 10 | 242 | 0.0 | 6.4 | 0.00 | 0.00 | 0.00 | 64 | 1007.6 |
| 20260504183038 | 10 | 267 | 3.2 | 9.7 | 0.00 | 0.00 | 0.00 | 62 | 1007.6 |
| 20260504181538 | 10 | 281 | 1.6 | 11.3 | 0.00 | 0.00 | 0.00 | 60 | 1007.5 |
| 20260504180033 | 11 | 232 | 3.2 | 9.7 | 0.00 | 0.00 | 0.00 | 58 | 1007.4 |
| 20260504174529 | 11 | 248 | 3.2 | 11.3 | 0.00 | 0.00 | 0.00 | 56 | 1007.3 |
| 20260504173027 | 11 | 261 | 3.2 | 12.9 | 0.00 | 0.00 | 0.00 | 58 | 1007.3 |
| 20260504171539 | 12 | 271 | 3.2 | 9.7 | 0.00 | 0.00 | 0.00 | 56 | 1007.2 |